Regional Weather Roundup
Issued by NWS

Home | Current Version | Previous Version | Graphics & Text | Print | Product List | Glossary On
Versions: 1 2 3 4 5 6 7 8 9 10 11 12 13 14 15 16 17 18 19 20 21 22 23 24 25 26 27 28 29 30 31 32 33 34 35 36 37 38 39 40 41 42 43 44 45 46 47 48 49 50
000
ASUS43 KMKX 260900
RWRWI

WISCONSIN REGIONAL WEATHER ROUNDUP
NATIONAL WEATHER SERVICE MILWAUKEE/SULLIVAN WI
400 AM CDT WED JUL 26 2017

NOTE: "FAIR" INDICATES FEW OR NO CLOUDS BELOW 12,000 FEET WITH NO
SIGNIFICANT WEATHER AND/OR OBSTRUCTIONS TO VISIBILITY.

WIZ001-002-006>008-014>016-023>028-261000-
NORTHWEST WISCONSIN

CITY           SKY/WX    TMP DP  RH WIND       PRES   REMARKS
SUPERIOR ARPT  NOT AVBL
ASHLAND        MOCLDY    70  68  93 SW8       29.91F
HAYWARD        CLOUDY    70  68  93 W5        29.96S
SIREN          CLOUDY    70  69  97 CALM      29.95F
CUMBERLAND     CLOUDY    68  66  94 CALM      29.97F FOG
RICE LAKE      CLOUDY    69  68  95 CALM      29.98S FOG
CHETEK         CLOUDY    70  69  98 CALM      29.97S
LADYSMITH      CLOUDY    70  68  93 S6        29.99F
EAU CLAIRE     NOT AVBL
MENOMONIE      CLOUDY    71  70  96 NE6       29.95F FOG
NEW RICHMOND   CLOUDY    73  71  96 SE3       29.94F
OSCEOLA        CLOUDY    72  72 100 NE3       29.95F
$$

WIZ003>005-009-010-017-018-261000-
NORTH CENTRAL WISCONSIN

CITY           SKY/WX    TMP DP  RH WIND       PRES   REMARKS
MANITOWISH WTR CLOUDY    68  68 100 SW6       29.96R
ARBOR VITAE    CLOUDY    69  67  92 SW6       29.96F
WOODRUFF       CLOUDY    69  67  92 SW6       29.96F
RHINELANDER    CLOUDY    68  67  96 SW12G20   29.98F
EAGLE RIVER    CLOUDY    68  66  93 SW7       29.97S
LAND O LAKES   MOCLDY    68  65  90 S5        29.98F
PHILLIPS       CLOUDY    69  68  99 SW8       29.97S
TOMAHAWK       LGT RAIN  66  64  94 CALM      29.98F
MEDFORD        CLOUDY    67  66  96 S9        30.01F
MERRILL        NOT AVBL
$$

WIZ029-030-035-036-043>047-261000-
CENTRAL WISCONSIN

CITY           SKY/WX    TMP DP  RH WIND       PRES   REMARKS
WAUSAU         LGT RAIN  67  67 100 SE10      29.98F FOG
MOSINEE        CLOUDY    66  66 100 SE6       30.05R
MARSHFIELD     CLOUDY    69  66  90 SW10      30.01F
STEVENS POINT  CLOUDY    67  65  95 NW3G9     30.09R
WAUPACA        CLOUDY    69  62  77 S5        30.04S
WAUTOMA        CLOUDY    67  63  87 S5        30.04S
WISC RAPIDS    CLOUDY    70  66  87 NE8       30.05R
CAMP DOUGLAS   NOT AVBL
$$

WIZ011>013-019>022-031-037>040-048>050-261000-
NORTHEAST WISCONSIN

CITY           SKY/WX    TMP DP  RH WIND       PRES   REMARKS
ANTIGO         RAIN      65  65  99 SW12G17   30.04S
SHAWANO        LGT RAIN  68  64  86 SW5       30.05R
OCONTO         CLOUDY    66  62  86 SW8       30.00F
STURGEON BAY   LGT RAIN  65  62  90 SW16G23   30.01S
GREEN BAY      CLOUDY    67  62  84 NW5       30.04R
MANITOWOC      NOT AVBL
APPLETON       CLOUDY    66  57  72 S10       30.02F
CLINTONVILLE   LGT RAIN N/A N/A N/A W5        30.07R
OSHKOSH        CLOUDY    68  61  78 S12       30.03F
$$

WIZ032>034-041-042-053>061-261000-
SOUTHWEST WISCONSIN

CITY           SKY/WX    TMP DP  RH WIND       PRES   REMARKS
LA CROSSE      CLOUDY    75  69  81 S9        29.97F
SPARTA         CLOUDY    69  66  90 S3        30.01F
VIROQUA        CLOUDY    69  69  99 S6        30.03F
BOSCOBEL       CLOUDY    70  67  90 CALM      30.01F
PRAIRIE DU CHI CLOUDY    73  65  76 SE3       30.01F
PLATTEVILLE    CLOUDY    68  68 100 S8        30.06F
$$

WIZ056-057-062-063-064-067-068-261000-
SOUTH CENTRAL WISCONSIN

CITY           SKY/WX    TMP DP  RH WIND       PRES   REMARKS
REEDSBURG      CLOUDY    68  67  96 S3        30.04F
BARABOO/DELLS  CLOUDY    69  62  78 S8        30.04F
LONE ROCK      NOT AVBL
MINERAL POINT  CLOUDY    66  66 100 SE8       30.06F
MADISON        CLOUDY    70  62  76 S9        30.06F
MIDDLETON      CLOUDY    69  62  79 S5        30.08S
WATERTOWN      MOCLDY    65  63  93 S3        30.09S
MONROE         PTCLDY    64  61  88 S10       30.08S
JANESVILLE     PTCLDY    64  63  94 S3        30.09S
$$

WIZ051-052-058>065-066-070>072-261000-
SOUTHEAST WISCONSIN

CITY           SKY/WX    TMP DP  RH WIND       PRES   REMARKS
MILWAUKEE      CLOUDY    69  59  70 SW8       30.09R
WAUKESHA       CLOUDY    64  55  72 S7        30.11S
MILWAUKEE/TIMM CLOUDY    68  54  60 SW7       30.10S
RACINE         CLOUDY    69  59  70 S9        30.11F
KENOSHA        PTCLDY    67  58  72 S9        30.09F
FOND DU LAC    CLOUDY    69  58  67 S10       30.05F
SHEBOYGAN      MOCLDY    67  60  78 S12       30.06F
WEST BEND      CLOUDY    64  59  82 SW3       30.08F
JUNEAU         CLOUDY    65  60  84 S6        30.09S
$$

LSZ147-162-261000-
LAKE SUPERIOR

STATION/POSITION TIME  TEMP    WIND        PRES    WAVE
                       AIR SEA DIR/SP/G            HT/PER
                 (UTC) (F)     (DEG/KT/KT) (MB)    (FT/S)
W MID LAKE BUOY  0750   56 52  280/  4/  4 1011.6F   1/ 4
DEVILS ISLAND    0800   66     260/ 14/ 16 1011.4F
PORT WING        0730   66     180/  5/  7 1012.5S
SAXON HARBOR     0830   73     210/  7/ 10 1012.2S
$$

LMZ867-665-643>646-261000-
LAKE MICHIGAN

STATION/POSITION TIME  TEMP    WIND        PRES    WAVE
                       AIR SEA DIR/SP/G            HT/PER
                 (UTC) (F)     (DEG/KT/KT) (MB)    (FT/S)
CHAMBERS ISLAND  0840   69     180/  8/ 18 1014.6F
S GREEN BAY BUOY 0830   68 72  200/ 21/ 27 1015.4F
N MID LAKE BUOY  0750   67 66  180/ 21/ 27 1017.2F   4/ 5
NORTHPORT PIER   0840   67     160/  6/  7 1015.6F
KEWAUNEE LAKESHO 0830   69     200/ 10/ 17 1015.9F
SHEBOYGAN LAKESH 0800   70     210/ 11/ 13 1018.1F
PORT WASHINGTON  0840   70     210/  6/  8 1019.0F
ATWATER BUOY     0709   69 68  170/ 10/ 10 1019.6F
MILWAUKEE LAKESH 0830   70     200/  9/ 11   N/A
S MID LAKE BUOY  0750   72 71  190/ 14/ 14 1020.1S   1/ 4
KENOSHA   LAKESH 0800   70     170/  8/  9 1019.3
$$

TC  - TEMPERATURE IN CELSIUS
VSB - VISIBILITY IN STATUTE MILES
WCI - WIND CHILL INDEX
HX  - HEAT INDEX




USA.gov is the U.S. government's official web portal to all federal, state and local government web resources and services.